Tracking 19792 objects as of 16-Jul-2019
HD Live streaming from Space Station
objects crossing your sky now

BSAT-2C

Track BSAT-2C now!
BSAT-2C is classified as:


NORAD ID: 27830
Int'l Code: 2003-028A
Perigee: 36,065.8 km
Apogee: 36,125.8 km
Inclination: 4.6 °
Period: 1,451.6 minutes
Semi major axis: 42466 km
RCS: 12.6191 m2 (large)
Launch date: June 11, 2003
Source: Japan (JPN)
Launch site: FRENCH GUIANA (FRGUI)

Backup to BSAT-2A; direct digital broadcasts to homes in Japan and neighboring countries through its Ku-band transponders.
aabbcc
Your satellite tracking list
Your tracking list is empty




NASA's NSSDC Master Catalog

Two Line Element Set (TLE):
1 27830U 03028A   19196.01305230 -.00000249  00000-0  00000+0 0  9998
2 27830   4.5940  70.5740 0007066 249.0735 319.7278  0.99203813 58731
Source of the keplerian elements: AFSPC